DECAYED

CZ-6A DEB, 60629 (Decayed)

Orbit data source: Space-Track

CZ-6A DEB, 60629 was space debris in LEO originally from a launch on Tue, 06 Aug 2024 UTC launched from the Taiyaun Space Center, China (TSC). Debris objects in space refer to the collection of defunct objects orbiting the Earth. Examples of debris include non-operational satellites, rocket bodies, and fragments generated from explosions, collisions, or faulty payload assembly.

Not visible in the next 10 days
Identifier
60629, 2024-140AE
Orbit
Decayed
Country
Flag of CNCN / PRC
Related business
Manufacturer
SAST
Mission
Decayed spacecraft
Bus & Motor
Unknown
Mass
Unknown
Launch date (UTC)
2024-08-06 (2 years ago)
Launch vehicle
Unknown
Launch site
Taiyaun Space Center, China (TSC)
Object type
Payload
Rocket body
Debris
Shape & HBR
Unknown shape, 0.3 m
Radar Cross Section
Medium (>0.1 m² and <1 m²)

Expand to show TLE details & history
Last TLE update: 1 year ago

TLE from 1 year ago
0 CZ-6A DEB
1 60629U 24140AE  25156.34434215  .15617401 -11259-5  29280-2 0  9991
2 60629  89.2161 321.9835 0012551 341.3087  18.7756 16.31986856 45515
Epoch: 2025-06-05T08:15Z
TLE epoch observation values (Epoch: 2025-06-05T08:15:51.161Z)
Latitude
-0.00005°
Longitude
-55.99398°
Altitude
182.754 km
Speed
7.801 km/s
True Right ascension
21h 27m 56s
True Declination
0° 00' 00"
Sunlit
Object was in full shadow at epoch
Visualization orbit readout
Latitude
Unknown
Longitude
Unknown
Altitude
Unknown
Speed
Unknown
Apparent Right ascension
Unknown
Apparent Declination
Unknown
Sunlit
N/A
Visualization observer readout
Local Sidereal Time
08:42:10
Azimuth
Unknown
Elevation
Unknown
Doppler factor
Unknown
Orbital elements
Apogee altitude
192.095 km
Perigee altitude
175.623 km
Semi-major axis
6,561.996 km
Eccentricity
0.00126
Inclination
89.2161°
RAAN
321.9835°
Arg. of periapsis
341.3087°
True anomaly
18.82196°
Mean anomaly
18.7756°
Eccentric anomaly
18.79877°
Mean motion
4.08309 °/min
Orbital period
88.17 mins
BSTAR
0.002928
Loading maneuver chart data...
Computing Atmospheric mass density...
Loading historical data...
Loading historical data...
Loading historical data...
Loading historical data...
Loading historical data...
Loading historical data...
Loading historical data...

Documentation

Showing up to 5 results
|